Time,TemperatureF,DewpointF,PressureIn,WindDirection,WindDirectionDegrees,WindSpeedMPH,WindSpeedGustMPH,Humidity,HourlyPrecipIn,Conditions,Clouds,dailyrainin,SoftwareType,DateUTC
2013-05-23 00:01:00,61.3,59.9,29.76,South,191,2.0,5.0,95,0.00,,,0.00,Wunderground v.1.15,2013-05-23 04:01:00,
2013-05-23 00:02:00,61.3,59.9,29.76,SSW,193,2.0,5.0,95,0.00,,,0.00,Wunderground v.1.15,2013-05-23 04:02:00,
2013-05-23 00:04:00,61.3,59.9,29.76,South,181,2.0,5.0,95,0.00,,,0.00,Wunderground v.1.15,2013-05-23 04:04:00,
2013-05-23 00:09:00,61.2,59.8,29.76,South,191,3.0,5.0,95,0.00,,,0.00,Wunderground v.1.15,2013-05-23 04:09:00,
2013-05-23 00:10:00,61.2,59.5,29.76,South,190,3.0,5.0,94,0.00,,,0.00,Wunderground v.1.15,2013-05-23 04:10:00,
2013-05-23 00:14:00,61.2,59.5,29.76,SSW,207,2.0,5.0,94,0.00,,,0.00,Wunderground v.1.15,2013-05-23 04:14:00,
2013-05-23 00:20:00,61.1,59.4,29.75,SSW,203,2.0,5.0,94,0.00,,,0.00,Wunderground v.1.15,2013-05-23 04:20:00,
2013-05-23 00:26:00,61.1,59.4,29.76,SW,222,2.0,5.0,94,0.00,,,0.00,Wunderground v.1.15,2013-05-23 04:26:00,
2013-05-23 00:32:00,61.2,59.2,29.76,SW,224,3.0,5.0,93,0.00,,,0.00,Wunderground v.1.15,2013-05-23 04:32:00,
2013-05-23 00:38:00,61.3,59.3,29.76,SW,225,4.0,8.0,93,0.00,,,0.00,Wunderground v.1.15,2013-05-23 04:38:00,
2013-05-23 00:43:00,61.4,59.1,29.76,SW,233,5.0,5.0,92,0.00,,,0.00,Wunderground v.1.15,2013-05-23 04:43:00,
2013-05-23 00:49:00,61.4,59.1,29.76,WSW,238,5.0,5.0,92,0.00,,,0.00,Wunderground v.1.15,2013-05-23 04:49:00,
2013-05-23 00:55:00,61.3,59.0,29.76,SW,217,4.0,5.0,92,0.00,,,0.00,Wunderground v.1.15,2013-05-23 04:55:00,
2013-05-23 01:01:00,61.2,58.9,29.76,SW,233,3.0,3.0,92,0.00,,,0.00,Wunderground v.1.15,2013-05-23 05:01:00,
2013-05-23 01:07:00,61.1,58.8,29.76,WSW,240,3.0,5.0,92,0.00,,,0.00,Wunderground v.1.15,2013-05-23 05:07:00,
2013-05-23 01:13:00,61.1,58.8,29.76,SW,229,3.0,5.0,92,0.00,,,0.00,Wunderground v.1.15,2013-05-23 05:13:00,
2013-05-23 01:19:00,61.1,58.8,29.76,SW,222,3.0,6.0,92,0.00,,,0.00,Wunderground v.1.15,2013-05-23 05:19:00,
2013-05-23 01:24:00,61.2,58.9,29.76,SW,226,4.0,6.0,92,0.00,,,0.00,Wunderground v.1.15,2013-05-23 05:24:00,
2013-05-23 01:30:00,61.3,59.0,29.77,SW,214,4.0,6.0,92,0.00,,,0.00,Wunderground v.1.15,2013-05-23 05:30:00,
2013-05-23 01:36:00,61.2,58.9,29.76,SW,222,3.0,5.0,92,0.00,,,0.00,Wunderground v.1.15,2013-05-23 05:36:00,
2013-05-23 01:42:00,61.1,58.8,29.76,SW,216,3.0,5.0,92,0.00,,,0.00,Wunderground v.1.15,2013-05-23 05:42:00,
2013-05-23 01:48:00,61.2,58.6,29.77,SW,218,3.0,5.0,91,0.00,,,0.00,Wunderground v.1.15,2013-05-23 05:48:00,
2013-05-23 01:54:00,61.2,58.6,29.76,WSW,240,4.0,6.0,91,0.00,,,0.00,Wunderground v.1.15,2013-05-23 05:54:00,
2013-05-23 02:01:00,61.3,58.7,29.76,WSW,248,5.0,5.0,91,0.00,,,0.00,Wunderground v.1.15,2013-05-23 06:01:00,
2013-05-23 02:06:00,61.3,58.7,29.76,South,190,4.0,5.0,91,0.00,,,0.00,Wunderground v.1.15,2013-05-23 06:06:00,
2013-05-23 02:12:00,61.2,58.6,29.76,SW,233,3.0,5.0,91,0.00,,,0.00,Wunderground v.1.15,2013-05-23 06:12:00,
2013-05-23 02:18:00,61.0,58.4,29.76,SW,229,4.0,5.0,91,0.00,,,0.00,Wunderground v.1.15,2013-05-23 06:18:00,
2013-05-23 02:24:00,60.9,58.6,29.76,SSW,212,3.0,5.0,92,0.00,,,0.00,Wunderground v.1.15,2013-05-23 06:24:00,
2013-05-23 02:30:00,60.9,58.6,29.76,SSW,210,3.0,5.0,92,0.00,,,0.00,Wunderground v.1.15,2013-05-23 06:30:00,
2013-05-23 02:36:00,60.8,58.5,29.76,SW,222,3.0,5.0,92,0.00,,,0.00,Wunderground v.1.15,2013-05-23 06:36:00,
2013-05-23 02:42:00,60.8,58.5,29.76,SW,217,3.0,5.0,92,0.00,,,0.00,Wunderground v.1.15,2013-05-23 06:42:00,
2013-05-23 02:48:00,60.7,58.4,29.76,SW,214,3.0,5.0,92,0.00,,,0.00,Wunderground v.1.15,2013-05-23 06:48:00,
2013-05-23 02:53:00,60.5,58.2,29.76,SW,221,3.0,5.0,92,0.00,,,0.00,Wunderground v.1.15,2013-05-23 06:53:00,
2013-05-23 02:59:00,60.4,58.4,29.76,SW,221,3.0,5.0,93,0.00,,,0.00,Wunderground v.1.15,2013-05-23 06:59:00,
2013-05-23 03:05:00,60.2,58.2,29.76,SW,231,3.0,5.0,93,0.00,,,0.00,Wunderground v.1.15,2013-05-23 07:05:00,
2013-05-23 03:11:00,60.1,58.1,29.76,SW,221,2.0,5.0,93,0.00,,,0.00,Wunderground v.1.15,2013-05-23 07:11:00,
2013-05-23 03:17:00,60.1,58.1,29.76,SW,231,3.0,5.0,93,0.00,,,0.00,Wunderground v.1.15,2013-05-23 07:17:00,
2013-05-23 03:23:00,60.0,58.0,29.77,SW,221,4.0,5.0,93,0.00,,,0.00,Wunderground v.1.15,2013-05-23 07:23:00,
2013-05-23 03:29:00,60.0,58.0,29.76,SW,228,3.0,5.0,93,0.00,,,0.00,Wunderground v.1.15,2013-05-23 07:29:00,
2013-05-23 03:34:00,60.1,58.1,29.77,SW,233,3.0,5.0,93,0.00,,,0.00,Wunderground v.1.15,2013-05-23 07:34:00,
2013-05-23 03:40:00,60.1,58.1,29.77,SW,233,4.0,6.0,93,0.00,,,0.00,Wunderground v.1.15,2013-05-23 07:40:00,
2013-05-23 03:46:00,60.2,58.2,29.76,WSW,248,4.0,5.0,93,0.00,,,0.00,Wunderground v.1.15,2013-05-23 07:46:00,
2013-05-23 03:57:00,60.1,58.1,29.77,SW,219,4.0,5.0,93,0.00,,,0.00,Wunderground v.1.15,2013-05-23 07:57:00,
2013-05-23 04:03:00,60.1,58.1,29.77,SW,228,4.0,5.0,93,0.00,,,0.00,Wunderground v.1.15,2013-05-23 08:03:00,
2013-05-23 04:09:00,60.3,58.0,29.77,SW,222,5.0,8.0,92,0.00,,,0.00,Wunderground v.1.15,2013-05-23 08:09:00,
2013-05-23 04:15:00,60.4,58.1,29.77,WSW,250,5.0,6.0,92,0.00,,,0.00,Wunderground v.1.15,2013-05-23 08:15:00,
2013-05-23 04:20:00,60.4,58.1,29.77,WSW,238,4.0,6.0,92,0.00,,,0.00,Wunderground v.1.15,2013-05-23 08:20:00,
2013-05-23 04:26:00,60.5,58.2,29.77,West,259,3.0,5.0,92,0.00,,,0.00,Wunderground v.1.15,2013-05-23 08:26:00,
2013-05-23 04:32:00,60.5,58.2,29.77,SSE,160,3.0,5.0,92,0.00,,,0.00,Wunderground v.1.15,2013-05-23 08:32:00,
2013-05-23 04:38:00,60.6,58.0,29.78,SSW,212,4.0,6.0,91,0.00,,,0.00,Wunderground v.1.15,2013-05-23 08:38:00,
2013-05-23 04:44:00,60.6,58.3,29.78,SW,232,4.0,7.0,92,0.00,,,0.00,Wunderground v.1.15,2013-05-23 08:44:00,
2013-05-23 04:50:00,60.6,58.3,29.78,SSW,195,4.0,7.0,92,0.00,,,0.00,Wunderground v.1.15,2013-05-23 08:50:00,
2013-05-23 04:56:00,60.5,58.2,29.78,SSW,204,4.0,5.0,92,0.00,,,0.00,Wunderground v.1.15,2013-05-23 08:56:00,
2013-05-23 05:01:00,60.6,58.3,29.78,SSW,204,4.0,5.0,92,0.00,,,0.00,Wunderground v.1.15,2013-05-23 09:01:00,
2013-05-23 05:07:00,60.6,58.0,29.78,SW,225,4.0,7.0,91,0.00,,,0.00,Wunderground v.1.15,2013-05-23 09:07:00,
2013-05-23 05:13:00,60.5,57.6,29.78,WSW,249,4.0,5.0,90,0.00,,,0.00,Wunderground v.1.15,2013-05-23 09:13:00,
2013-05-23 05:19:00,60.6,57.3,29.78,South,191,4.0,9.0,89,0.00,,,0.00,Wunderground v.1.15,2013-05-23 09:19:00,
2013-05-23 05:25:00,60.6,57.3,29.78,SW,226,3.0,6.0,89,0.00,,,0.00,Wunderground v.1.15,2013-05-23 09:25:00,
2013-05-23 05:31:00,60.6,57.7,29.79,SW,231,3.0,6.0,90,0.00,,,0.00,Wunderground v.1.15,2013-05-23 09:31:00,
2013-05-23 05:37:00,60.4,57.5,29.79,WSW,251,4.0,9.0,90,0.00,,,0.00,Wunderground v.1.15,2013-05-23 09:37:00,
2013-05-23 05:43:00,60.3,57.4,29.79,SW,229,5.0,7.0,90,0.00,,,0.00,Wunderground v.1.15,2013-05-23 09:43:00,
2013-05-23 05:49:00,60.1,57.2,29.79,South,184,5.0,8.0,90,0.00,,,0.00,Wunderground v.1.15,2013-05-23 09:49:00,
2013-05-23 05:54:00,60.0,57.4,29.79,SW,228,5.0,7.0,91,0.00,,,0.00,Wunderground v.1.15,2013-05-23 09:54:00,
2013-05-23 06:01:00,59.8,57.2,29.80,SW,222,5.0,5.0,91,0.00,,,0.00,Wunderground v.1.15,2013-05-23 10:01:00,
2013-05-23 06:07:00,59.6,57.0,29.80,South,191,4.0,7.0,91,0.00,,,0.00,Wunderground v.1.15,2013-05-23 10:07:00,
2013-05-23 06:13:00,59.3,57.0,29.80,WSW,240,4.0,5.0,92,0.00,,,0.00,Wunderground v.1.15,2013-05-23 10:13:00,
2013-05-23 06:19:00,59.1,56.8,29.80,SW,232,4.0,5.0,92,0.00,,,0.00,Wunderground v.1.15,2013-05-23 10:19:00,
2013-05-23 06:25:00,59.0,56.7,29.80,WSW,243,3.0,5.0,92,0.00,,,0.00,Wunderground v.1.15,2013-05-23 10:25:00,
2013-05-23 06:31:00,59.0,57.0,29.80,SW,226,3.0,5.0,93,0.00,,,0.00,Wunderground v.1.15,2013-05-23 10:31:00,
2013-05-23 06:36:00,59.0,56.7,29.80,SW,228,3.0,5.0,92,0.00,,,0.00,Wunderground v.1.15,2013-05-23 10:36:00,
2013-05-23 06:42:00,59.0,56.7,29.80,SW,228,2.0,5.0,92,0.00,,,0.00,Wunderground v.1.15,2013-05-23 10:42:00,
2013-05-23 06:48:00,59.0,56.4,29.80,SW,215,2.0,5.0,91,0.00,,,0.00,Wunderground v.1.15,2013-05-23 10:48:00,
2013-05-23 06:54:00,59.1,56.5,29.80,SW,226,2.0,5.0,91,0.00,,,0.00,Wunderground v.1.15,2013-05-23 10:54:00,
2013-05-23 07:01:00,59.1,56.5,29.80,SW,236,3.0,6.0,91,0.00,,,0.00,Wunderground v.1.15,2013-05-23 11:01:00,
2013-05-23 07:07:00,59.2,56.6,29.81,SW,233,4.0,8.0,91,0.00,,,0.00,Wunderground v.1.15,2013-05-23 11:07:00,
2013-05-23 07:13:00,59.3,56.7,29.81,SW,231,5.0,5.0,91,0.00,,,0.00,Wunderground v.1.15,2013-05-23 11:13:00,
2013-05-23 07:19:00,59.3,56.7,29.82,SW,222,4.0,7.0,91,0.00,,,0.00,Wunderground v.1.15,2013-05-23 11:19:00,
2013-05-23 07:24:00,59.4,56.8,29.82,SE,139,5.0,9.0,91,0.00,,,0.00,Wunderground v.1.15,2013-05-23 11:24:00,
2013-05-23 07:30:00,59.6,57.0,29.82,SE,136,5.0,9.0,91,0.00,,,0.00,Wunderground v.1.15,2013-05-23 11:30:00,
2013-05-23 07:36:00,59.6,57.0,29.82,WSW,238,6.0,12.0,91,0.00,,,0.00,Wunderground v.1.15,2013-05-23 11:36:00,
2013-05-23 07:41:00,59.7,57.1,29.82,WSW,253,8.0,8.0,91,0.00,,,0.00,Wunderground v.1.15,2013-05-23 11:41:00,
2013-05-23 07:47:00,59.7,56.8,29.82,SSW,212,8.0,14.0,90,0.00,,,0.00,Wunderground v.1.15,2013-05-23 11:47:00,
2013-05-23 07:53:00,59.8,56.9,29.82,SSW,201,8.0,10.0,90,0.00,,,0.00,Wunderground v.1.15,2013-05-23 11:53:00,
2013-05-23 07:59:00,59.8,56.9,29.82,WSW,252,8.0,11.0,90,0.00,,,0.00,Wunderground v.1.15,2013-05-23 11:59:00,
2013-05-23 08:05:00,59.8,56.9,29.82,SW,229,7.0,10.0,90,0.00,,,0.00,Wunderground v.1.15,2013-05-23 12:05:00,
2013-05-23 08:11:00,59.8,56.9,29.83,SW,233,7.0,11.0,90,0.00,,,0.00,Wunderground v.1.15,2013-05-23 12:11:00,
2013-05-23 08:17:00,59.8,56.9,29.82,SSW,194,7.0,11.0,90,0.00,,,0.00,Wunderground v.1.15,2013-05-23 12:17:00,
2013-05-23 08:22:00,59.9,57.0,29.82,WSW,243,7.0,9.0,90,0.00,,,0.00,Wunderground v.1.15,2013-05-23 12:22:00,
2013-05-23 08:28:00,59.9,57.0,29.83,SW,225,6.0,11.0,90,0.00,,,0.00,Wunderground v.1.15,2013-05-23 12:28:00,
2013-05-23 08:34:00,59.9,57.0,29.83,SSW,200,7.0,9.0,90,0.00,,,0.00,Wunderground v.1.15,2013-05-23 12:34:00,
2013-05-23 08:40:00,59.9,56.6,29.83,South,176,7.0,12.0,89,0.00,,,0.00,Wunderground v.1.15,2013-05-23 12:40:00,
2013-05-23 08:46:00,59.9,56.6,29.83,SW,226,8.0,10.0,89,0.00,,,0.00,Wunderground v.1.15,2013-05-23 12:46:00,
2013-05-23 08:52:00,60.0,56.7,29.83,SW,215,8.0,16.0,89,0.00,,,0.00,Wunderground v.1.15,2013-05-23 12:52:00,
2013-05-23 08:58:00,60.0,56.7,29.83,South,176,8.0,17.0,89,0.00,,,0.00,Wunderground v.1.15,2013-05-23 12:58:00,
2013-05-23 09:03:00,60.1,56.8,29.83,WSW,237,7.0,12.0,89,0.00,,,0.00,Wunderground v.1.15,2013-05-23 13:03:00,
2013-05-23 09:09:00,60.0,56.7,29.84,SW,221,7.0,15.0,89,0.00,,,0.00,Wunderground v.1.15,2013-05-23 13:09:00,
2013-05-23 09:15:00,59.4,56.8,29.84,SW,231,9.0,13.0,91,0.00,,,0.00,Wunderground v.1.15,2013-05-23 13:15:00,
2013-05-23 09:21:00,58.9,56.6,29.84,North,352,9.0,9.0,92,0.00,,,0.00,Wunderground v.1.15,2013-05-23 13:21:00,
2013-05-23 09:27:00,58.7,57.0,29.84,WSW,238,8.0,9.0,94,0.00,,,0.01,Wunderground v.1.15,2013-05-23 13:27:00,
2013-05-23 09:33:00,58.6,56.9,29.85,WSW,240,7.0,11.0,94,0.00,,,0.01,Wunderground v.1.15,2013-05-23 13:33:00,
2013-05-23 09:39:00,58.5,56.8,29.85,WSW,255,7.0,11.0,94,0.06,,,0.02,Wunderground v.1.15,2013-05-23 13:39:00,
2013-05-23 09:44:00,58.6,57.2,29.85,WSW,245,7.0,11.0,95,0.06,,,0.02,Wunderground v.1.15,2013-05-23 13:44:00,
2013-05-23 09:50:00,58.8,57.4,29.85,SSW,198,7.0,11.0,95,0.04,,,0.02,Wunderground v.1.15,2013-05-23 13:50:00,
2013-05-23 09:56:00,59.0,57.3,29.85,SSW,210,6.0,9.0,94,0.00,,,0.02,Wunderground v.1.15,2013-05-23 13:56:00,
2013-05-23 10:01:00,59.1,57.4,29.85,SW,222,7.0,7.0,94,0.00,,,0.02,Wunderground v.1.15,2013-05-23 14:01:00,
2013-05-23 10:07:00,59.5,57.8,29.85,SW,233,6.0,10.0,94,0.00,,,0.02,Wunderground v.1.15,2013-05-23 14:07:00,
2013-05-23 10:13:00,59.8,58.1,29.85,SW,217,6.0,9.0,94,0.00,,,0.02,Wunderground v.1.15,2013-05-23 14:13:00,
2013-05-23 10:18:00,59.9,57.9,29.85,WSW,253,6.0,9.0,93,0.00,,,0.02,Wunderground v.1.15,2013-05-23 14:18:00,
2013-05-23 10:24:00,60.3,58.0,29.85,West,267,6.0,10.0,92,0.00,,,0.02,Wunderground v.1.15,2013-05-23 14:24:00,
2013-05-23 10:30:00,60.6,57.7,29.85,SSW,195,6.0,10.0,90,0.00,,,0.02,Wunderground v.1.15,2013-05-23 14:30:00,
2013-05-23 10:36:00,60.6,57.7,29.85,ENE,58,7.0,9.0,90,0.00,,,0.02,Wunderground v.1.15,2013-05-23 14:36:00,
2013-05-23 10:42:00,60.6,57.7,29.85,West,267,7.0,7.0,90,0.00,,,0.02,Wunderground v.1.15,2013-05-23 14:42:00,
2013-05-23 10:48:00,60.7,57.7,29.85,WNW,300,7.0,8.0,90,0.00,,,0.02,Wunderground v.1.15,2013-05-23 14:48:00,
2013-05-23 10:54:00,60.8,57.8,29.85,SSW,204,6.0,12.0,90,0.00,,,0.02,Wunderground v.1.15,2013-05-23 14:54:00,
2013-05-23 11:01:00,60.6,57.7,29.86,West,269,5.0,7.0,90,0.00,,,0.03,Wunderground v.1.15,2013-05-23 15:01:00,
2013-05-23 11:07:00,60.1,57.5,29.86,WNW,297,6.0,7.0,91,0.16,,,0.05,Wunderground v.1.15,2013-05-23 15:07:00,
2013-05-23 11:12:00,59.7,57.7,29.86,WNW,288,5.0,6.0,93,0.30,,,0.07,Wunderground v.1.15,2013-05-23 15:12:00,
2013-05-23 11:18:00,58.9,56.9,29.86,NW,314,7.0,17.0,93,0.28,,,0.11,Wunderground v.1.15,2013-05-23 15:18:00,
2013-05-23 11:24:00,58.3,56.3,29.86,NW,304,9.0,12.0,93,0.07,,,0.11,Wunderground v.1.15,2013-05-23 15:24:00,
2013-05-23 11:30:00,58.0,56.3,29.87,WNW,300,9.0,14.0,94,0.04,,,0.11,Wunderground v.1.15,2013-05-23 15:30:00,
2013-05-23 11:36:00,57.8,56.1,29.87,NW,307,9.0,15.0,94,0.00,,,0.11,Wunderground v.1.15,2013-05-23 15:36:00,
2013-05-23 11:42:00,58.0,56.0,29.87,NW,317,11.0,12.0,93,0.00,,,0.11,Wunderground v.1.15,2013-05-23 15:42:00,
2013-05-23 11:48:00,58.4,56.1,29.87,WNW,299,10.0,12.0,92,0.00,,,0.11,Wunderground v.1.15,2013-05-23 15:48:00,
2013-05-23 11:54:00,58.1,55.8,29.87,NW,311,10.0,14.0,92,0.00,,,0.11,Wunderground v.1.15,2013-05-23 15:54:00,
2013-05-23 11:59:00,58.0,55.7,29.88,NW,308,10.0,14.0,92,0.00,,,0.11,Wunderground v.1.15,2013-05-23 15:59:00,
2013-05-23 12:05:00,58.3,56.3,29.88,WNW,301,9.0,12.0,93,0.00,,,0.11,Wunderground v.1.15,2013-05-23 16:05:00,
2013-05-23 12:11:00,58.7,56.4,29.88,NW,315,8.0,10.0,92,0.00,,,0.11,Wunderground v.1.15,2013-05-23 16:11:00,
2013-05-23 12:17:00,58.8,55.9,29.88,NNW,333,10.0,18.0,90,0.00,,,0.11,Wunderground v.1.15,2013-05-23 16:17:00,
2013-05-23 12:23:00,59.1,56.8,29.89,NNW,332,10.0,10.0,92,0.00,,,0.11,Wunderground v.1.15,2013-05-23 16:23:00,
2013-05-23 12:29:00,59.1,56.5,29.89,NNW,338,9.0,17.0,91,0.00,,,0.11,Wunderground v.1.15,2013-05-23 16:29:00,
2013-05-23 12:34:00,59.0,55.4,29.89,NNW,330,10.0,15.0,88,0.00,,,0.11,Wunderground v.1.15,2013-05-23 16:34:00,
2013-05-23 12:40:00,58.8,55.3,29.90,NW,315,9.0,15.0,88,0.00,,,0.11,Wunderground v.1.15,2013-05-23 16:40:00,
2013-05-23 12:46:00,57.8,54.6,29.90,WNW,300,11.0,14.0,89,0.00,,,0.11,Wunderground v.1.15,2013-05-23 16:46:00,
2013-05-23 12:52:00,57.4,54.5,29.90,NW,315,10.0,10.0,90,0.00,,,0.11,Wunderground v.1.15,2013-05-23 16:52:00,
2013-05-23 12:58:00,57.3,53.8,29.90,NW,320,9.0,18.0,88,0.00,,,0.11,Wunderground v.1.15,2013-05-23 16:58:00,
2013-05-23 13:04:00,57.0,53.2,29.90,NW,319,13.0,17.0,87,0.00,,,0.11,Wunderground v.1.15,2013-05-23 17:04:00,
2013-05-23 13:10:00,56.7,53.2,29.90,NW,309,11.0,17.0,88,0.00,,,0.11,Wunderground v.1.15,2013-05-23 17:10:00,
2013-05-23 13:15:00,56.6,53.7,29.90,NW,304,9.0,14.0,90,0.00,,,0.11,Wunderground v.1.15,2013-05-23 17:15:00,
2013-05-23 13:21:00,56.7,52.9,29.91,NW,326,10.0,10.0,87,0.00,,,0.11,Wunderground v.1.15,2013-05-23 17:21:00,
2013-05-23 13:27:00,56.7,52.6,29.91,WNW,301,11.0,11.0,86,0.00,,,0.11,Wunderground v.1.15,2013-05-23 17:27:00,
2013-05-23 13:33:00,56.0,51.9,29.91,NW,319,10.0,13.0,86,0.00,,,0.11,Wunderground v.1.15,2013-05-23 17:33:00,
2013-05-23 13:39:00,55.4,51.6,29.91,ENE,62,10.0,13.0,87,0.00,,,0.11,Wunderground v.1.15,2013-05-23 17:39:00,
2013-05-23 13:45:00,55.4,51.9,29.91,NW,322,8.0,19.0,88,0.00,,,0.11,Wunderground v.1.15,2013-05-23 17:45:00,
2013-05-23 13:51:00,55.8,52.0,29.91,NW,307,9.0,13.0,87,0.00,,,0.11,Wunderground v.1.15,2013-05-23 17:51:00,
2013-05-23 13:57:00,55.9,51.8,29.91,NNW,336,11.0,15.0,86,0.00,,,0.11,Wunderground v.1.15,2013-05-23 17:57:00,
2013-05-23 14:02:00,55.7,51.3,29.91,NW,321,13.0,14.0,85,0.00,,,0.11,Wunderground v.1.15,2013-05-23 18:02:00,
2013-05-23 14:08:00,56.2,51.7,29.91,NNW,344,13.0,15.0,85,0.00,,,0.11,Wunderground v.1.15,2013-05-23 18:08:00,
2013-05-23 14:14:00,55.6,51.8,29.92,NW,309,11.0,12.0,87,0.00,,,0.11,Wunderground v.1.15,2013-05-23 18:14:00,
2013-05-23 14:20:00,55.3,50.9,29.92,WNW,297,10.0,18.0,85,0.00,,,0.11,Wunderground v.1.15,2013-05-23 18:20:00,
2013-05-23 14:26:00,55.0,50.6,29.92,NNW,335,10.0,15.0,85,0.00,,,0.11,Wunderground v.1.15,2013-05-23 18:26:00,
2013-05-23 14:32:00,54.4,50.0,29.93,NW,315,10.0,14.0,85,0.00,,,0.11,Wunderground v.1.15,2013-05-23 18:32:00,
2013-05-23 14:38:00,54.5,50.1,29.93,NNW,340,11.0,14.0,85,0.00,,,0.11,Wunderground v.1.15,2013-05-23 18:38:00,
2013-05-23 14:43:00,54.4,50.6,29.93,West,276,10.0,10.0,87,0.00,,,0.11,Wunderground v.1.15,2013-05-23 18:43:00,
2013-05-23 14:49:00,54.5,50.4,29.93,WSW,250,10.0,16.0,86,0.00,,,0.11,Wunderground v.1.15,2013-05-23 18:49:00,
2013-05-23 14:55:00,54.9,50.5,29.93,SSW,195,9.0,9.0,85,0.00,,,0.11,Wunderground v.1.15,2013-05-23 18:55:00,
2013-05-23 15:01:00,55.0,50.6,29.93,NW,321,13.0,13.0,85,0.00,,,0.11,Wunderground v.1.15,2013-05-23 19:01:00,
2013-05-23 15:07:00,55.2,50.8,29.94,NNW,333,12.0,19.0,85,0.00,,,0.11,Wunderground v.1.15,2013-05-23 19:07:00,
2013-05-23 15:12:00,54.9,49.8,29.94,NNW,327,10.0,20.0,83,0.00,,,0.11,Wunderground v.1.15,2013-05-23 19:12:00,
2013-05-23 15:18:00,54.8,50.4,29.94,NW,317,13.0,20.0,85,0.00,,,0.11,Wunderground v.1.15,2013-05-23 19:18:00,
2013-05-23 15:24:00,54.6,49.9,29.95,North,4,11.0,13.0,84,0.00,,,0.11,Wunderground v.1.15,2013-05-23 19:24:00,
2013-05-23 15:30:00,54.1,49.7,29.95,NW,316,11.0,16.0,85,0.00,,,0.11,Wunderground v.1.15,2013-05-23 19:30:00,
2013-05-23 15:36:00,53.5,49.4,29.96,NNW,327,10.0,14.0,86,0.00,,,0.11,Wunderground v.1.15,2013-05-23 19:36:00,
2013-05-23 15:42:00,53.4,49.6,29.97,WNW,297,11.0,11.0,87,0.00,,,0.11,Wunderground v.1.15,2013-05-23 19:42:00,
2013-05-23 15:48:00,53.2,49.1,29.97,NNW,338,10.0,16.0,86,0.00,,,0.11,Wunderground v.1.15,2013-05-23 19:48:00,
2013-05-23 15:53:00,53.0,49.2,29.97,NW,322,12.0,18.0,87,0.00,,,0.11,Wunderground v.1.15,2013-05-23 19:53:00,
2013-05-23 15:58:00,52.8,48.7,29.97,NW,317,14.0,23.0,86,0.00,,,0.11,Wunderground v.1.15,2013-05-23 19:58:00,
2013-05-23 16:04:00,52.9,48.8,29.97,NNW,327,14.0,14.0,86,0.00,,,0.11,Wunderground v.1.15,2013-05-23 20:04:00,
2013-05-23 16:10:00,52.7,48.9,29.98,NW,312,13.0,19.0,87,0.00,,,0.11,Wunderground v.1.15,2013-05-23 20:10:00,
2013-05-23 16:16:00,52.6,48.5,29.98,NW,315,12.0,13.0,86,0.00,,,0.11,Wunderground v.1.15,2013-05-23 20:16:00,
2013-05-23 16:22:00,52.5,48.7,29.98,NW,317,12.0,15.0,87,0.00,,,0.11,Wunderground v.1.15,2013-05-23 20:22:00,
2013-05-23 16:28:00,52.7,48.9,29.98,NW,317,12.0,15.0,87,0.00,,,0.11,Wunderground v.1.15,2013-05-23 20:28:00,
2013-05-23 16:33:00,52.9,49.1,29.98,NNW,334,10.0,15.0,87,0.00,,,0.11,Wunderground v.1.15,2013-05-23 20:33:00,
2013-05-23 16:39:00,53.0,48.9,29.98,NW,309,10.0,16.0,86,0.00,,,0.11,Wunderground v.1.15,2013-05-23 20:39:00,
2013-05-23 16:45:00,53.0,49.2,29.99,NNW,332,10.0,11.0,87,0.00,,,0.11,Wunderground v.1.15,2013-05-23 20:45:00,
2013-05-23 16:51:00,53.0,48.9,29.99,NNW,334,10.0,13.0,86,0.00,,,0.11,Wunderground v.1.15,2013-05-23 20:51:00,
2013-05-23 16:57:00,52.8,49.0,29.99,NNW,328,12.0,19.0,87,0.00,,,0.11,Wunderground v.1.15,2013-05-23 20:57:00,
2013-05-23 17:03:00,52.8,49.3,30.00,NNW,335,12.0,13.0,88,0.00,,,0.11,Wunderground v.1.15,2013-05-23 21:03:00,
2013-05-23 17:08:00,52.8,49.0,30.00,NW,317,12.0,16.0,87,0.00,,,0.11,Wunderground v.1.15,2013-05-23 21:08:00,
2013-05-23 17:14:00,52.6,48.8,30.00,NW,326,12.0,14.0,87,0.00,,,0.11,Wunderground v.1.15,2013-05-23 21:14:00,
2013-05-23 17:20:00,52.3,48.9,30.00,NNW,334,14.0,23.0,88,0.00,,,0.11,Wunderground v.1.15,2013-05-23 21:20:00,
2013-05-23 17:26:00,52.1,48.7,30.00,NNW,333,15.0,21.0,88,0.00,,,0.11,Wunderground v.1.15,2013-05-23 21:26:00,
2013-05-23 17:32:00,51.8,48.7,30.01,NNW,333,14.0,15.0,89,0.00,,,0.11,Wunderground v.1.15,2013-05-23 21:32:00,
2013-05-23 17:38:00,51.8,49.0,30.01,NW,320,11.0,15.0,90,0.00,,,0.11,Wunderground v.1.15,2013-05-23 21:38:00,
2013-05-23 17:44:00,51.4,48.3,30.02,NW,314,11.0,17.0,89,0.00,,,0.11,Wunderground v.1.15,2013-05-23 21:44:00,
2013-05-23 17:49:00,51.3,48.5,30.02,NNW,330,11.0,17.0,90,0.00,,,0.11,Wunderground v.1.15,2013-05-23 21:49:00,
2013-05-23 17:55:00,51.1,48.6,30.02,NNW,345,10.0,15.0,91,0.00,,,0.11,Wunderground v.1.15,2013-05-23 21:55:00,
2013-05-23 18:01:00,50.7,48.5,30.02,NNW,337,9.0,12.0,92,0.00,,,0.11,Wunderground v.1.15,2013-05-23 22:01:00,
2013-05-23 18:07:00,50.6,48.7,30.03,NW,306,9.0,12.0,93,0.00,,,0.11,Wunderground v.1.15,2013-05-23 22:07:00,
2013-05-23 18:13:00,50.2,48.0,30.03,NW,318,9.0,20.0,92,0.00,,,0.11,Wunderground v.1.15,2013-05-23 22:13:00,
2013-05-23 18:18:00,49.9,47.7,30.03,WNW,297,12.0,21.0,92,0.00,,,0.11,Wunderground v.1.15,2013-05-23 22:18:00,
2013-05-23 18:24:00,50.0,47.8,30.03,NNW,333,14.0,15.0,92,0.00,,,0.11,Wunderground v.1.15,2013-05-23 22:24:00,
2013-05-23 18:30:00,50.1,47.9,30.03,WNW,297,13.0,15.0,92,0.00,,,0.11,Wunderground v.1.15,2013-05-23 22:30:00,
2013-05-23 18:36:00,50.2,47.7,30.04,NNW,328,13.0,18.0,91,0.00,,,0.11,Wunderground v.1.15,2013-05-23 22:36:00,
2013-05-23 18:42:00,50.1,47.9,30.04,North,352,13.0,13.0,92,0.00,,,0.11,Wunderground v.1.15,2013-05-23 22:42:00,
2013-05-23 18:48:00,50.2,48.0,30.04,NNW,340,11.0,16.0,92,0.00,,,0.11,Wunderground v.1.15,2013-05-23 22:48:00,
2013-05-23 18:54:00,50.5,48.3,30.04,NNW,344,11.0,16.0,92,0.00,,,0.11,Wunderground v.1.15,2013-05-23 22:54:00,
2013-05-23 19:01:00,50.7,48.2,30.05,NNW,345,14.0,14.0,91,0.00,,,0.11,Wunderground v.1.15,2013-05-23 23:01:00,
2013-05-23 19:07:00,51.0,48.5,30.05,North,349,13.0,16.0,91,0.00,,,0.11,Wunderground v.1.15,2013-05-23 23:07:00,
2013-05-23 19:13:00,51.2,48.4,30.05,NW,326,12.0,16.0,90,0.00,,,0.11,Wunderground v.1.15,2013-05-23 23:13:00,
2013-05-23 19:18:00,51.2,48.4,30.06,NNW,334,12.0,18.0,90,0.00,,,0.11,Wunderground v.1.15,2013-05-23 23:18:00,
2013-05-23 19:24:00,51.2,48.7,30.06,NNW,338,12.0,13.0,91,0.00,,,0.11,Wunderground v.1.15,2013-05-23 23:24:00,
2013-05-23 19:30:00,50.9,48.4,30.07,NW,311,11.0,16.0,91,0.00,,,0.11,Wunderground v.1.15,2013-05-23 23:30:00,
2013-05-23 19:36:00,50.6,48.4,30.07,NW,314,11.0,13.0,92,0.00,,,0.11,Wunderground v.1.15,2013-05-23 23:36:00,
2013-05-23 19:42:00,50.5,48.3,30.07,NNW,327,11.0,11.0,92,0.00,,,0.11,Wunderground v.1.15,2013-05-23 23:42:00,
2013-05-23 19:48:00,50.7,48.5,30.08,NW,324,10.0,12.0,92,0.00,,,0.11,Wunderground v.1.15,2013-05-23 23:48:00,
2013-05-23 19:54:00,50.9,48.4,30.08,NW,323,11.0,15.0,91,0.00,,,0.11,Wunderground v.1.15,2013-05-23 23:54:00,
2013-05-23 19:59:00,51.0,48.2,30.08,North,357,11.0,15.0,90,0.00,,,0.11,Wunderground v.1.15,2013-05-23 23:59:00,
2013-05-23 20:05:00,51.0,48.2,30.09,NW,319,11.0,18.0,90,0.00,,,0.11,Wunderground v.1.15,2013-05-24 00:05:00,
2013-05-23 20:11:00,50.6,48.1,30.09,NW,321,12.0,12.0,91,0.00,,,0.11,Wunderground v.1.15,2013-05-24 00:11:00,
2013-05-23 20:17:00,50.3,47.8,30.09,NW,314,11.0,18.0,91,0.00,,,0.11,Wunderground v.1.15,2013-05-24 00:17:00,
2013-05-23 20:23:00,50.1,47.6,30.10,NNW,338,12.0,15.0,91,0.00,,,0.11,Wunderground v.1.15,2013-05-24 00:23:00,
2013-05-23 20:29:00,50.0,47.5,30.10,NNW,332,14.0,19.0,91,0.00,,,0.11,Wunderground v.1.15,2013-05-24 00:29:00,
2013-05-23 20:35:00,49.9,47.1,30.11,NNW,335,14.0,17.0,90,0.00,,,0.11,Wunderground v.1.15,2013-05-24 00:35:00,
2013-05-23 20:41:00,49.7,47.5,30.11,NNW,347,13.0,13.0,92,0.00,,,0.11,Wunderground v.1.15,2013-05-24 00:41:00,
2013-05-23 20:47:00,49.6,47.1,30.11,NNW,338,14.0,19.0,91,0.00,,,0.11,Wunderground v.1.15,2013-05-24 00:47:00,
2013-05-23 20:53:00,49.7,47.2,30.11,NW,318,12.0,13.0,91,0.00,,,0.11,Wunderground v.1.15,2013-05-24 00:53:00,
2013-05-23 20:58:00,49.6,46.8,30.11,NNW,333,11.0,19.0,90,0.00,,,0.11,Wunderground v.1.15,2013-05-24 00:58:00,
2013-05-23 21:04:00,49.7,46.9,30.12,NW,315,11.0,12.0,90,0.00,,,0.11,Wunderground v.1.15,2013-05-24 01:04:00,
2013-05-23 21:10:00,49.5,46.7,30.12,NNW,337,10.0,12.0,90,0.00,,,0.11,Wunderground v.1.15,2013-05-24 01:10:00,
2013-05-23 21:16:00,49.2,46.4,30.12,NNW,327,10.0,13.0,90,0.00,,,0.11,Wunderground v.1.15,2013-05-24 01:16:00,
2013-05-23 21:22:00,49.1,46.3,30.13,NW,325,11.0,11.0,90,0.00,,,0.11,Wunderground v.1.15,2013-05-24 01:22:00,
2013-05-23 21:28:00,49.0,46.2,30.13,NNW,334,11.0,13.0,90,0.00,,,0.11,Wunderground v.1.15,2013-05-24 01:28:00,
2013-05-23 21:33:00,48.9,46.1,30.13,NW,324,11.0,16.0,90,0.00,,,0.11,Wunderground v.1.15,2013-05-24 01:33:00,
2013-05-23 21:39:00,48.9,46.1,30.13,NNW,338,11.0,16.0,90,0.00,,,0.11,Wunderground v.1.15,2013-05-24 01:39:00,
2013-05-23 21:45:00,48.8,45.7,30.14,North,350,10.0,13.0,89,0.00,,,0.11,Wunderground v.1.15,2013-05-24 01:45:00,
2013-05-23 21:51:00,48.8,46.0,30.14,NNW,327,10.0,11.0,90,0.00,,,0.11,Wunderground v.1.15,2013-05-24 01:51:00,
2013-05-23 21:56:00,48.7,45.9,30.15,North,4,10.0,11.0,90,0.00,,,0.11,Wunderground v.1.15,2013-05-24 01:56:00,
2013-05-23 22:01:00,48.6,45.8,30.15,NNW,332,9.0,9.0,90,0.00,,,0.11,Wunderground v.1.15,2013-05-24 02:01:00,
2013-05-23 22:07:00,48.5,45.7,30.15,NW,325,9.0,12.0,90,0.00,,,0.11,Wunderground v.1.15,2013-05-24 02:07:00,
2013-05-23 22:13:00,48.4,45.6,30.16,NW,318,11.0,14.0,90,0.00,,,0.11,Wunderground v.1.15,2013-05-24 02:13:00,
2013-05-23 22:19:00,48.3,45.2,30.16,North,350,11.0,14.0,89,0.00,,,0.11,Wunderground v.1.15,2013-05-24 02:19:00,
2013-05-23 22:25:00,48.2,45.4,30.16,NNW,339,11.0,14.0,90,0.00,,,0.11,Wunderground v.1.15,2013-05-24 02:25:00,
2013-05-23 22:31:00,48.2,45.4,30.17,North,352,11.0,12.0,90,0.00,,,0.11,Wunderground v.1.15,2013-05-24 02:31:00,
2013-05-23 22:37:00,48.2,45.4,30.17,North,350,11.0,12.0,90,0.00,,,0.11,Wunderground v.1.15,2013-05-24 02:37:00,
2013-05-23 22:43:00,48.1,45.0,30.17,NW,315,11.0,16.0,89,0.00,,,0.11,Wunderground v.1.15,2013-05-24 02:43:00,
2013-05-23 22:48:00,48.1,45.0,30.17,NW,321,12.0,16.0,89,0.00,,,0.11,Wunderground v.1.15,2013-05-24 02:48:00,
2013-05-23 22:54:00,48.0,44.9,30.17,NNW,334,12.0,13.0,89,0.00,,,0.11,Wunderground v.1.15,2013-05-24 02:54:00,
2013-05-23 23:01:00,47.9,44.8,30.18,NNW,334,13.0,15.0,89,0.00,,,0.11,Wunderground v.1.15,2013-05-24 03:01:00,
2013-05-23 23:07:00,47.9,44.8,30.18,NW,321,12.0,15.0,89,0.00,,,0.11,Wunderground v.1.15,2013-05-24 03:07:00,
2013-05-23 23:13:00,47.6,44.8,30.18,WNW,293,9.0,10.0,90,0.00,,,0.11,Wunderground v.1.15,2013-05-24 03:13:00,
2013-05-23 23:19:00,47.4,44.6,30.18,NW,314,9.0,15.0,90,0.00,,,0.11,Wunderground v.1.15,2013-05-24 03:19:00,
2013-05-23 23:24:00,47.2,44.4,30.18,NNW,340,9.0,9.0,90,0.00,,,0.11,Wunderground v.1.15,2013-05-24 03:24:00,
2013-05-23 23:30:00,47.2,44.7,30.18,NW,315,9.0,11.0,91,0.00,,,0.11,Wunderground v.1.15,2013-05-24 03:30:00,
2013-05-23 23:36:00,47.2,44.7,30.18,NW,321,9.0,11.0,91,0.00,,,0.11,Wunderground v.1.15,2013-05-24 03:36:00,
2013-05-23 23:42:00,47.1,44.6,30.18,NNW,340,9.0,11.0,91,0.00,,,0.11,Wunderground v.1.15,2013-05-24 03:42:00,
2013-05-23 23:48:00,47.0,44.2,30.18,NW,315,9.0,13.0,90,0.00,,,0.11,Wunderground v.1.15,2013-05-24 03:48:00,
2013-05-23 23:54:00,46.7,43.9,30.18,NW,316,9.0,10.0,90,0.00,,,0.11,Wunderground v.1.15,2013-05-24 03:54:00,